[[{"header":{"parameterUnit":"m.s-1","parameterCategory":1,"la1":30.2991,"la2":30.254,"lo1":-89.0895,"lo2":-89.0444,"dy":0.0017,"dx":0.0017,"nx":28,"ny":28,"refTime":"2024-06-10T03:00:00:Z","depth":0,"parameterNumber":2,"parameterNumberName":"U-component_of_WINDS"},"data":[0,0,0,0,0,0,0,0,0,0,0,0,0,0,0,0,0,0,0,0,0,0,0,0,0,0,0,0,0,0,0,0,0,0,0,0,0,0,0,0,0,0,0,0,0,0,0,0,0,0,0,0,0,0,0,0,0,0,0.6055,0.6056,0,0.6151,0.6152,0.6153,0.6209,0.621,0.621,0.621,0.6308,0.6311,0.6313,0,0,0,0,0,0,0,0,0,0,0,0,0,0.5919,0.5921,0.6055,0.6056,0.6057,0.6151,0.6152,0.6153,0.6209,0.621,0.621,0.621,0.6307,0.631,0.6313,0,0,0,0,0,0,0,0,0,0,0,0,0,0.5992,0.5922,0.6055,0.6096,0.6101,0.615,0.6152,0.6154,0.6209,0.621,0.621,0.621,0.6306,0.631,0.6314,0.6329,0,0,0.6324,0.6326,0,0,0,0,0,0,0,0,0.5988,0.5997,0.6089,0.6094,0.6099,0.6169,0.614,0.6212,0.6209,0.6168,0.621,0.621,0.6261,0.6269,0.6286,0.6333,0.6337,0.6325,0.6327,0.6329,0.633,0,0,0,0,0,0,0,0.5983,0.5994,0.6093,0.609,0.6096,0.611,0.6121,0.6154,0.6212,0.6172,0.6176,0.6187,0.6264,0.6282,0.6289,0.6339,0.6325,0.6328,0.633,0.6331,0.6402,0.6402,0,0,0,0,0,0,0.5971,0.5989,0.609,0.6096,0.6043,0.6112,0.6124,0.6146,0.6211,0.6222,0.6186,0.6189,0.6276,0.6284,0.6292,0.6314,0.6328,0.6332,0.6334,0.6402,0.6402,0.6402,0,0,0,0,0,0,0.5968,0.598,0.6086,0.6044,0.6058,0.6114,0.6138,0.6147,0.6166,0.6222,0.6233,0.6194,0.6277,0.6287,0.6319,0.6318,0.6333,0.6337,0.6403,0.6402,0.6402,0.6356,0,0,0,0,0,0,0.5964,0.5978,0.5985,0.6043,0.606,0.6111,0.6138,0.6149,0.6172,0.6176,0.6233,0.6242,0.6278,0.6313,0.6322,0.6323,0.634,0.6403,0.6402,0.6402,0.6358,0.6354,0.6351,0,0,0,0,0,0.5959,0.5969,0.5985,0.5997,0.607,0.6111,0.612,0.6161,0.6172,0.6178,0.6215,0.6241,0.6316,0.6316,0.6327,0.6328,0.6403,0.6403,0.6402,0.636,0.6355,0.6351,0,0,0,0,0,0,0.5909,0.5977,0.5996,0.6025,0.6061,0.612,0.613,0.6155,0.6189,0.6192,0.6241,0.6253,0.628,0.6307,0.6306,0.6346,0.6363,0.6364,0.6327,0.6323,0.6319,0.6312,0.6343,0,0,0,0,0,0.5901,0.5929,0.5987,0.6007,0.6024,0.6074,0.6093,0.6121,0.6161,0.6177,0.6216,0.6253,0.6286,0.6306,0.6339,0.6362,0.6375,0.6369,0.6365,0.6362,0.6363,0.6376,0.6374,0.64,0.64,0.64,0,0,0.5886,0.5926,0.5941,0.5998,0.603,0.6057,0.6087,0.6115,0.6135,0.6181,0.6213,0.6243,0.6288,0.6315,0.6329,0.6339,0.6358,0.6361,0.6358,0.6361,0.6375,0.6373,0.6371,0.6399,0.6399,0.6399,0,0,0.5871,0.5905,0.5924,0.5955,0.6003,0.6036,0.604,0.6095,0.6116,0.6149,0.6184,0.6209,0.6264,0.6294,0.6317,0.6313,0.6338,0.6322,0.6304,0.6316,0.6314,0.6313,0.631,0.6309,0.6322,0.6322,0.6322,0,0.5845,0.5888,0.5931,0.5957,0.5981,0.6023,0.6043,0.6071,0.6127,0.6142,0.6152,0.6221,0.6255,0.6289,0.6288,0.6305,0.6311,0.6316,0.6311,0.631,0.6309,0.6307,0.6306,0.632,0.632,0.6321,0.6321,0,0.5854,0.5883,0.5893,0.5946,0.5971,0.5993,0.6039,0.6059,0.6084,0.6115,0.6148,0.6189,0.6231,0.6241,0.6267,0.6279,0.6284,0.6302,0.632,0.6304,0.6303,0.6303,0.6317,0.6318,0.6318,0.6319,0,0,0.5811,0.5886,0.5889,0.5913,0.5968,0.5991,0.6015,0.6056,0.6071,0.6108,0.6129,0.6174,0.6191,0.6216,0.6245,0.6257,0.6249,0.6273,0.6275,0.6267,0.6265,0.625,0.6249,0.6266,0.6266,0.6266,0.6261,0,0.5804,0.585,0.5889,0.5919,0.5946,0.5987,0.6008,0.6043,0.6073,0.61,0.6133,0.6163,0.6184,0.6199,0.6212,0.6247,0.6249,0.6248,0.6286,0.6286,0.6272,0.6248,0.6234,0.6226,0.6261,0.6261,0.6261,0,0.5802,0.5837,0.587,0.5922,0.5934,0.5952,0.5992,0.6017,0.6058,0.6079,0.6107,0.6137,0.6164,0.6179,0.6216,0.6214,0.6232,0.6251,0.6252,0.6257,0.6272,0.6252,0.6225,0.6223,0.6261,0.6261,0.6261,0,0.5766,0.5821,0.5848,0.5868,0.5928,0.594,0.5966,0.6007,0.6028,0.6063,0.6077,0.6114,0.6135,0.6163,0.6202,0.6209,0.6234,0.6253,0.6252,0.6251,0.6255,0.6254,0.623,0.6267,0.6267,0.6267,0.6267,0,0.5754,0.5773,0.5833,0.5849,0.5871,0.5915,0.5935,0.5965,0.6001,0.6023,0.6061,0.6081,0.6132,0.6158,0.6189,0.6214,0.6223,0.6241,0.6249,0.6237,0.6235,0.6249,0.625,0.6267,0.6267,0.6267,0.6267,0,0.5718,0.5759,0.5791,0.5845,0.5859,0.5873,0.592,0.5937,0.5968,0.5996,0.6005,0.6054,0.6087,0.6129,0.6175,0.6196,0.6218,0.623,0.6203,0.6208,0.6204,0.6204,0.6188,0.6188,0.6225,0.6225,0.6224,0,0.5707,0.5723,0.5778,0.5796,0.582,0.5849,0.587,0.5914,0.5935,0.5982,0.5994,0.6029,0.606,0.611,0.615,0.6185,0.6198,0.619,0.6204,0.6191,0.6197,0.6196,0.6197,0.6187,0.6186,0.6185,0.6185,0,0.5684,0.5703,0.5733,0.577,0.5795,0.5826,0.5859,0.5871,0.5921,0.5943,0.5977,0.6,0.6047,0.6081,0.6121,0.6148,0.6174,0.618,0.6182,0.617,0.6154,0.6162,0.6194,0.6181,0.6181,0.6181,0.6182,0.6182,0.566,0.5674,0.5716,0.5748,0.5777,0.5806,0.5825,0.5858,0.5887,0.5928,0.5952,0.5984,0.6024,0.6081,0.6106,0.6132,0.6142,0.6145,0.6145,0.6145,0.6141,0.615,0.614,0.614,0.614,0.614,0.614,0,0.5637,0.5665,0.5694,0.5738,0.5763,0.5786,0.5823,0.5842,0.587,0.5905,0.5934,0.5972,0.6006,0.6048,0.6084,0.6096,0.6109,0.6104,0.6104,0.6109,0.613,0.6125,0.6093,0.6093,0.6093,0.6093,0.6093,0.6093,0.5628,0.5654,0.5678,0.5719,0.5747,0.5779,0.5798,0.5825,0.5853,0.5894,0.5921,0.5948,0.5986,0.6025,0.6056,0.6068,0.6079,0.607,0.6085,0.6104,0.6108,0.6112,0.6107,0.6072,0.6072,0.6062,0.6062,0.6062]},{"header":{"parameterUnit":"m.s-1","parameterCategory":1,"la1":30.2991,"la2":30.254,"lo1":-89.0895,"lo2":-89.0444,"dy":0.0017,"dx":0.0017,"nx":28,"ny":28,"refTime":"2024-06-10T03:00:00:Z","depth":0,"parameterNumber":3,"parameterNumberName":"V-component_of_WINDS"},"data":[0,0,0,0,0,0,0,0,0,0,0,0,0,0,0,0,0,0,0,0,0,0,0,0,0,0,0,0,0,0,0,0,0,0,0,0,0,0,0,0,0,0,0,0,0,0,0,0,0,0,0,0,0,0,0,0,0,0,0.7958,0.7957,0,0.7848,0.7847,0.7845,0.7773,0.7772,0.7772,0.7771,0.7655,0.7653,0.765,0,0,0,0,0,0,0,0,0,0,0,0,0,0.8103,0.8101,0.7958,0.7957,0.7955,0.7848,0.7847,0.7845,0.7773,0.7772,0.7772,0.7771,0.7656,0.7653,0.765,0,0,0,0,0,0,0,0,0,0,0,0,0,0.8021,0.81,0.7958,0.7907,0.7901,0.7848,0.7847,0.7845,0.7773,0.7772,0.7772,0.7771,0.7657,0.7653,0.7649,0.7639,0,0,0.7637,0.7636,0,0,0,0,0,0,0,0,0.8026,0.8016,0.7916,0.791,0.7903,0.7823,0.7855,0.7776,0.7773,0.7821,0.7771,0.7771,0.7712,0.7703,0.7684,0.7634,0.7629,0.7637,0.7635,0.7633,0.7632,0,0,0,0,0,0,0,0.8032,0.802,0.7914,0.7914,0.7907,0.7888,0.7875,0.784,0.7772,0.7817,0.7812,0.78,0.7708,0.7688,0.7681,0.7627,0.7637,0.7633,0.7631,0.7629,0.7562,0.7562,0,0,0,0,0,0,0.8046,0.8025,0.7918,0.7911,0.7964,0.7886,0.7872,0.785,0.7772,0.7759,0.78,0.7797,0.7695,0.7685,0.7676,0.7658,0.7633,0.7629,0.7627,0.7561,0.7562,0.7562,0,0,0,0,0,0,0.8049,0.8037,0.7922,0.7967,0.7951,0.7884,0.786,0.7848,0.7828,0.7759,0.7747,0.7792,0.7694,0.7682,0.7649,0.7653,0.7627,0.7624,0.756,0.7561,0.7562,0.7623,0,0,0,0,0,0,0.8054,0.8039,0.8035,0.7967,0.7949,0.7898,0.786,0.7846,0.7821,0.7815,0.7748,0.7737,0.7693,0.7655,0.7645,0.7647,0.7621,0.756,0.7561,0.7562,0.762,0.7626,0.7631,0,0,0,0,0,0.8059,0.8056,0.8035,0.8022,0.7943,0.7898,0.7888,0.7838,0.7822,0.7817,0.7773,0.7739,0.7655,0.7652,0.764,0.7642,0.7559,0.756,0.7562,0.7618,0.7625,0.7631,0,0,0,0,0,0,0.8124,0.8046,0.8022,0.7997,0.7955,0.7886,0.7878,0.7847,0.7808,0.7804,0.7743,0.7728,0.7701,0.7668,0.7667,0.7627,0.7603,0.7602,0.765,0.7656,0.7661,0.7669,0.7617,0,0,0,0,0,0.8136,0.8108,0.804,0.8025,0.8005,0.7946,0.7924,0.789,0.7844,0.7825,0.7779,0.7734,0.7698,0.7675,0.7637,0.7615,0.7599,0.761,0.7615,0.762,0.762,0.7605,0.7609,0.7567,0.7567,0.7567,0,0,0.8159,0.8113,0.8099,0.8037,0.8,0.7971,0.7931,0.7902,0.788,0.782,0.7787,0.7751,0.7697,0.767,0.7655,0.7641,0.7628,0.7622,0.7626,0.7623,0.7606,0.7611,0.7614,0.7568,0.7567,0.7567,0,0,0.8187,0.815,0.8132,0.8097,0.8042,0.8003,0.7999,0.7935,0.7909,0.7875,0.783,0.7802,0.774,0.7704,0.7677,0.7691,0.7658,0.7681,0.7708,0.7694,0.7697,0.77,0.7704,0.7707,0.7681,0.7681,0.7681,0,0.8223,0.8178,0.8127,0.8101,0.8074,0.8021,0.8002,0.797,0.7906,0.7888,0.7874,0.7795,0.7755,0.7718,0.7722,0.7702,0.7695,0.7688,0.7701,0.7703,0.7705,0.7708,0.771,0.7684,0.7684,0.7683,0.7683,0,0.8224,0.8194,0.8187,0.8127,0.81,0.8078,0.8022,0.8001,0.7969,0.7931,0.7895,0.7846,0.7797,0.7786,0.7754,0.7744,0.7737,0.7713,0.7687,0.7713,0.7715,0.7716,0.7688,0.7687,0.7686,0.7686,0,0,0.8289,0.8203,0.82,0.8173,0.8109,0.8084,0.8059,0.8013,0.7995,0.7953,0.793,0.7879,0.7856,0.7826,0.779,0.7778,0.7792,0.7754,0.7752,0.7763,0.7777,0.7795,0.7798,0.777,0.777,0.777,0.7781,0,0.8307,0.826,0.8214,0.8183,0.8154,0.8103,0.8081,0.8039,0.8003,0.7972,0.7932,0.7897,0.787,0.7851,0.7837,0.7793,0.7794,0.7792,0.7746,0.7745,0.7761,0.7799,0.7818,0.7832,0.7782,0.7782,0.7782,0,0.8321,0.8282,0.825,0.8189,0.8175,0.8156,0.811,0.8081,0.8032,0.8007,0.7974,0.7935,0.7905,0.7884,0.7841,0.7841,0.782,0.7795,0.7794,0.7788,0.7765,0.7793,0.7835,0.7837,0.7783,0.7783,0.7783,0,0.8371,0.8311,0.8283,0.8261,0.8189,0.8177,0.8147,0.8097,0.8072,0.8031,0.8014,0.797,0.7946,0.7912,0.7863,0.7852,0.7825,0.78,0.7802,0.7804,0.7798,0.7799,0.7837,0.7786,0.7786,0.7786,0.7786,0,0.8395,0.8377,0.8305,0.8288,0.8265,0.8211,0.8191,0.8155,0.8112,0.8086,0.8039,0.8016,0.7952,0.7921,0.7881,0.7852,0.7841,0.7819,0.7809,0.7823,0.7826,0.7808,0.7805,0.7786,0.7786,0.7786,0.7786,0,0.8447,0.8398,0.8365,0.83,0.8283,0.827,0.8213,0.8194,0.8156,0.8124,0.8113,0.8052,0.8013,0.7961,0.7905,0.7879,0.7854,0.7838,0.7871,0.7865,0.787,0.787,0.7897,0.7898,0.7848,0.7848,0.7849,0,0.8466,0.8451,0.8385,0.8365,0.8336,0.8304,0.8279,0.8225,0.82,0.8144,0.8131,0.8089,0.8052,0.7992,0.7942,0.7899,0.7881,0.7894,0.7874,0.7889,0.7881,0.7882,0.788,0.7898,0.7899,0.79,0.79,0,0.8503,0.848,0.8446,0.8403,0.8375,0.8338,0.8299,0.8286,0.8223,0.8198,0.8158,0.813,0.8073,0.8031,0.7982,0.7949,0.7914,0.7907,0.7905,0.7919,0.7939,0.7928,0.7883,0.7906,0.7906,0.7905,0.7905,0.7905,0.8538,0.8523,0.8474,0.8437,0.8403,0.8368,0.8347,0.8306,0.8272,0.8223,0.8193,0.8154,0.8105,0.8035,0.8004,0.7972,0.7958,0.7956,0.7955,0.7955,0.796,0.7945,0.7963,0.7963,0.7963,0.7962,0.7962,0,0.8573,0.854,0.8507,0.8455,0.8426,0.8397,0.8352,0.833,0.8297,0.8254,0.822,0.8174,0.8133,0.808,0.8035,0.802,0.8003,0.801,0.801,0.8003,0.7975,0.7981,0.8025,0.8025,0.8025,0.8025,0.8025,0.8025,0.8588,0.856,0.8531,0.8484,0.845,0.8413,0.839,0.8357,0.8323,0.8274,0.8241,0.8207,0.816,0.8112,0.8073,0.8058,0.8044,0.8056,0.8036,0.8011,0.8005,0.8,0.8005,0.8053,0.8053,0.8067,0.8067,0.8067]}]]